Weather History for KEDW - January, 2012

Change the Weather History Date:

Sunday, January 29, 2012

  Actual Average Record
Temperature  
Mean Temperature 41 °F -  
Max Temperature 62 °F 58 °F 77 °F (2014)
Min Temperature 20 °F 30 °F 20 °F (2012)
Degree Days  
Heating Degree Days 24    
Moisture  
Dew Point 3 °F    
Average Humidity 26    
Maximum Humidity 47    
Minimum Humidity 7    
Precipitation  
Precipitation 0.00 in - - ()
Sea Level Pressure  
Sea Level Pressure 30.28 in    
Wind  
Wind Speed 3 mph (West)    
Max Wind Speed 6 mph    
Max Gust Speed -    
Visibility 10 miles    
Events      
Averages and records for this station are not official NWS values.
T = Trace of Precipitation, MM = Missing Value Source: NWS Daily Summary

Daily Weather History Graph

Daily Weather History Graph

Search for Another Location

Airport or City:

Trip Planner

Search our weather history database for the weather conditions in past years. The results will help you decide how hot, cold, wet, or windy it might be!

Date:

Astronomy

Jan. 29, 2012 Rise Set
Actual Time 6:52 AM PST 5:17 PM PST
Civil Twilight 6:25 AM PST 5:43 PM PST
Nautical Twilight 5:55 AM PST 6:14 PM PST
Astronomical Twilight 5:25 AM PST 6:44 PM PST
Moon 10:04 AM PST (1/29) 11:47 PM PST (1/29)
Length of Visible Light 11h 18m
Length of Day
10h 24m
Waxing Crescent, 37% of the Moon is Illuminated
Jan 29
Waxing Crescent
Jan 30
First Quarter
Feb 7
Full
Feb 14
Last Quarter
Feb 21
New

Hourly Weather History & Observations

Time (PST) Temp. Windchill Dew Point Humidity Pressure Visibility Wind Dir Wind Speed Gust Speed Precip Events Conditions
12:55 AM 28.4 °F 24.6 °F 0.3 °F 30% 30.37 in 10.0 mi WSW 3.5 mph - N/A   Clear
1:55 AM 27.5 °F 21.1 °F 1.4 °F 33% 30.37 in 10.0 mi WSW 5.8 mph - N/A   Clear
2:55 AM 25.9 °F 20.3 °F 2.7 °F 37% 30.36 in 10.0 mi West 4.6 mph - N/A   Clear
3:55 AM 23.7 °F 17.8 °F 2.8 °F 41% 30.36 in 10.0 mi West 4.6 mph - N/A   Clear
4:55 AM 22.8 °F - 1.4 °F 40% 30.36 in 10.0 mi Calm Calm - N/A   Clear
5:55 AM 23.2 °F 18.7 °F 0.7 °F 38% 30.36 in 40.0 mi NW 3.5 mph - N/A   Scattered Clouds
6:55 AM 20.7 °F 14.2 °F 3.0 °F 47% 30.39 in 90.0 mi WSW 4.6 mph - N/A   Mostly Cloudy
7:55 AM 25.0 °F - 2.3 °F 38% 30.39 in 90.0 mi Calm Calm - N/A   Mostly Cloudy
8:55 AM 31.3 °F - 3.9 °F 31% 30.39 in 90.0 mi Calm Calm - N/A   Mostly Cloudy
9:55 AM 39.4 °F - 4.1 °F 23% 30.38 in 90.0 mi Calm Calm - N/A   Mostly Cloudy
10:55 AM 44.1 °F - 7.5 °F 22% 30.35 in 90.0 mi Calm Calm - N/A   Mostly Cloudy
11:55 AM 50.5 °F - 7.3 °F 17% 30.30 in 90.0 mi Calm Calm - N/A   Mostly Cloudy
12:55 PM 55.2 °F - 5.0 °F 13% 30.26 in 90.0 mi North 3.5 mph - N/A   Mostly Cloudy
1:55 PM 60.1 °F - -1.5 °F 8% 30.22 in 90.0 mi North 4.6 mph - N/A   Mostly Cloudy
2:55 PM 61.5 °F - -3.1 °F 7% 30.19 in 90.0 mi Calm Calm - N/A   Mostly Cloudy
3:55 PM 62.1 °F - -2.7 °F 7% 30.18 in 90.0 mi Calm Calm - N/A   Mostly Cloudy
4:55 PM 59.0 °F - 2.1 °F 10% 30.16 in 90.0 mi Calm Calm - N/A   Mostly Cloudy
5:55 PM 51.6 °F - 3.0 °F 14% 30.17 in 50.0 mi West 4.6 mph - N/A   Mostly Cloudy
6:55 PM 41.4 °F 37.6 °F 3.2 °F 20% 30.19 in 50.0 mi South 5.8 mph - N/A   Mostly Cloudy
7:55 PM 37.9 °F 35.5 °F 4.3 °F 25% 30.19 in 50.0 mi South 3.5 mph - N/A   Mostly Cloudy
8:55 PM 36.1 °F 32.3 °F 3.2 °F 25% 30.19 in 50.0 mi WSW 4.6 mph - N/A   Mostly Cloudy
9:55 PM 35.4 °F - 4.8 °F 28% 30.17 in 50.0 mi Calm Calm - N/A   Mostly Cloudy
10:55 PM 30.9 °F - 6.4 °F 36% 30.17 in 10.0 mi Calm Calm - N/A   Clear
11:55 PM 31.5 °F - 6.8 °F 35% 30.15 in 10.0 mi Calm Calm - N/A   Clear